Location: *
(42.3442°N, 9.2072°E)
Time: 03:21:30
(UTC+00:00)

SL-24 R/B - Pass Details

Date: 09 April 2020
Orbit: 505 x 1003 km, 97.4° (Epoch: 02 June)

Event Time Altitude Azimuth Distance (km) Brightness Sun altitude
Rises 18:47:21 0° 21° (NNE) 2,794 7.4 -9.5°
Reaches altitude 10° 18:49:44 10° 31° (NNE) 1,833 6.4 -9.9°
Maximum altitude 18:53:16 32° 96° (E) 907 4.4 -10.5°
Drops below altitude 10° 18:56:36 10° 161° (SSE) 1,720 6.0 -11.1°
Sets 18:58:46 0° 172° (S) 2,591 7.0 -11.5°
